| time (UTC) | temp F | wind direction | speed MPH | gust MPH | rain 1hr in | rain 24hr in | rain mn in | humidity % | barometer mb |
| 20260506172257 | 46 | 1 | 2.0 | 2.0 | 0.12 | 0.66 | 0.66 | 99 | 1006.6 |
| 20260506171755 | 46 | 5 | 3.0 | 5.0 | 0.12 | 0.65 | 0.65 | 99 | 1006.6 |
| 20260506171251 | 46 | 349 | 2.0 | 2.0 | 0.07 | 0.64 | 0.64 | 99 | 1006.6 |
| 20260506170749 | 46 | 8 | 3.0 | 3.0 | 0.05 | 0.63 | 0.63 | 99 | 1006.7 |
| 20260506170245 | 46 | 6 | 2.0 | 2.0 | 0.05 | 0.63 | 0.63 | 99 | 1006.6 |
| 20260506165744 | 46 | 298 | 2.0 | 2.0 | 0.07 | 0.62 | 0.62 | 99 | 1006.4 |
| 20260506165241 | 46 | 181 | 0.0 | 0.0 | 0.19 | 0.62 | 0.62 | 99 | 1006.6 |
| 20260506164738 | 47 | 256 | 3.0 | 3.0 | 0.24 | 0.61 | 0.61 | 99 | 1006.5 |
| 20260506164235 | 47 | 237 | 2.0 | 2.0 | 0.17 | 0.59 | 0.59 | 99 | 1006.6 |
| 20260506163732 | 47 | 320 | 4.0 | 5.0 | 0.12 | 0.57 | 0.57 | 99 | 1006.6 |
| 20260506163226 | 48 | 306 | 3.0 | 5.0 | 0.14 | 0.56 | 0.56 | 99 | 1006.6 |
| 20260506162722 | 48 | 335 | 1.0 | 3.0 | 0.12 | 0.55 | 0.55 | 99 | 1006.4 |
| 20260506162220 | 48 | 3 | 3.0 | 3.0 | 0.12 | 0.54 | 0.54 | 99 | 1006.6 |
| 20260506161718 | 48 | 16 | 0.0 | 1.0 | 0.19 | 0.53 | 0.53 | 99 | 1006.8 |
| 20260506161215 | 48 | 11 | 3.0 | 3.0 | 0.17 | 0.52 | 0.52 | 99 | 1006.8 |
| 20260506160712 | 48 | 28 | 2.0 | 2.0 | 0.12 | 0.50 | 0.50 | 99 | 1006.7 |
| 20260506160209 | 49 | 188 | 0.0 | 1.0 | 0.07 | 0.49 | 0.49 | 99 | 1006.4 |
| 20260506155707 | 49 | 321 | 2.0 | 2.0 | 0.05 | 0.48 | 0.48 | 99 | 1006.6 |
| 20260506155204 | 49 | 74 | 2.0 | 2.0 | 0.12 | 0.48 | 0.48 | 99 | 1006.6 |
| 20260506153311 | 49 | 359 | 0.0 | 1.0 | 0.12 | 0.42 | 0.42 | 99 | 1006.7 |
| 20260506152808 | 49 | 213 | 1.0 | 1.0 | 0.12 | 0.41 | 0.41 | 99 | 1006.7 |
| 20260506152306 | 49 | 202 | 1.0 | 2.0 | 0.07 | 0.40 | 0.40 | 99 | 1006.7 |
| 20260506151805 | 49 | 212 | 1.0 | 1.0 | 0.05 | 0.39 | 0.39 | 99 | 1006.8 |
| 20260506151301 | 49 | 183 | 1.0 | 1.0 | 0.12 | 0.39 | 0.39 | 99 | 1006.9 |
| 20260506150757 | 49 | 71 | 2.0 | 2.0 | 0.07 | 0.38 | 0.38 | 99 | 1007.0 |
| 20260506150303 | 49 | 239 | 1.0 | 2.0 | 0.05 | 0.37 | 0.37 | 99 | 1007.1 |
| 20260506145751 | 49 | 253 | 2.0 | 2.0 | 0.12 | 0.37 | 0.37 | 99 | 1007.1 |
| 20260506145248 | 49 | 347 | 2.0 | 2.0 | 0.12 | 0.36 | 0.36 | 99 | 1007.4 |
| 20260506144745 | 49 | 184 | 0.0 | 1.0 | 0.05 | 0.35 | 0.35 | 99 | 1007.3 |
| 20260506144242 | 49 | 196 | 0.0 | 1.0 | 0.07 | 0.34 | 0.34 | 99 | 1007.3 |
| 20260506143740 | 49 | 225 | 1.0 | 1.0 | 0.05 | 0.33 | 0.33 | 99 | 1007.3 |
| 20260506143237 | 50 | 222 | 1.0 | 2.0 | 0.05 | 0.33 | 0.33 | 99 | 1007.3 |
| 20260506142736 | 49 | 185 | 1.0 | 1.0 | 0.05 | 0.33 | 0.33 | 99 | 1007.3 |
| 20260506142233 | 50 | 238 | 1.0 | 2.0 | 0.07 | 0.32 | 0.32 | 99 | 1007.1 |
| 20260506141731 | 50 | 202 | 1.0 | 1.0 | 0.07 | 0.32 | 0.32 | 99 | 1007.4 |
| 20260506141229 | 49 | 193 | 0.0 | 1.0 | 0.05 | 0.31 | 0.31 | 99 | 1007.3 |
| 20260506140726 | 49 | 196 | 1.0 | 1.0 | 0.12 | 0.31 | 0.31 | 99 | 1007.3 |
| 20260506140223 | 49 | 339 | 2.0 | 2.0 | 0.07 | 0.30 | 0.30 | 99 | 1007.5 |
| 20260506135720 | 49 | 249 | 1.0 | 1.0 | 0.12 | 0.29 | 0.29 | 99 | 1007.4 |
| 20260506135216 | 49 | 180 | 0.0 | 1.0 | 0.17 | 0.28 | 0.28 | 99 | 1007.5 |
| 20260506134713 | 49 | 179 | 0.0 | 0.0 | 0.19 | 0.27 | 0.27 | 99 | 1007.7 |
| 20260506134209 | 49 | 195 | 0.0 | 1.0 | 0.12 | 0.25 | 0.25 | 99 | 1007.5 |
| 20260506133707 | 49 | 180 | 0.0 | 1.0 | 0.05 | 0.24 | 0.24 | 99 | 1007.5 |
| 20260506133203 | 49 | 227 | 1.0 | 2.0 | 0.07 | 0.23 | 0.23 | 99 | 1007.5 |
| 20260506132700 | 50 | 264 | 1.0 | 2.0 | 0.12 | 0.23 | 0.23 | 99 | 1007.7 |
| 20260506132157 | 50 | 212 | 1.0 | 1.0 | 0.05 | 0.22 | 0.22 | 99 | 1007.6 |
| 20260506131655 | 50 | 351 | 2.0 | 2.0 | 0.12 | 0.22 | 0.22 | 99 | 1007.7 |
| 20260506131151 | 50 | 216 | 0.0 | 1.0 | 0.12 | 0.21 | 0.21 | 99 | 1007.5 |
| 20260506130648 | 50 | 182 | 0.0 | 0.0 | 0.12 | 0.20 | 0.20 | 99 | 1008.0 |
| 20260506130145 | 50 | 178 | 1.0 | 1.0 | 0.19 | 0.19 | 0.19 | 99 | 1007.9 |
| 20260506125643 | 50 | 192 | 0.0 | 0.0 | 0.19 | 0.18 | 0.18 | 99 | 1008.1 |
| 20260506125141 | 50 | 185 | 0.0 | 0.0 | 0.12 | 0.16 | 0.16 | 99 | 1008.2 |
| 20260506124639 | 50 | 277 | 2.0 | 2.0 | 0.12 | 0.15 | 0.15 | 99 | 1008.1 |
| 20260506124136 | 50 | 168 | 0.0 | 0.0 | 0.07 | 0.14 | 0.14 | 99 | 1008.4 |
| 20260506123633 | 49 | 243 | 2.0 | 2.0 | 0.05 | 0.13 | 0.13 | 99 | 1008.1 |
| 20260506123132 | 50 | 305 | 1.0 | 1.0 | 0.05 | 0.13 | 0.13 | 99 | 1008.1 |
| 20260506122628 | 50 | 181 | 0.0 | 1.0 | 0.07 | 0.12 | 0.12 | 99 | 1008.2 |
| 20260506122126 | 50 | 245 | 1.0 | 2.0 | 0.07 | 0.12 | 0.12 | 99 | 1008.1 |
| 20260506121624 | 50 | 350 | 3.0 | 3.0 | 0.00 | 0.11 | 0.11 | 99 | 1008.2 |
| 20260506121120 | 50 | 236 | 2.0 | 2.0 | 0.05 | 0.11 | 0.11 | 99 | 1008.3 |
| 20260506120618 | 50 | 269 | 2.0 | 2.0 | 0.05 | 0.11 | 0.11 | 99 | 1008.2 |
| 20260506120115 | 51 | 195 | 0.0 | 0.0 | 0.00 | 0.10 | 0.10 | 99 | 1008.5 |
| 20260506115614 | 51 | 186 | 0.0 | 0.0 | 0.00 | 0.10 | 0.10 | 99 | 1008.5 |
| 20260506115111 | 51 | 197 | 0.0 | 0.0 | 0.00 | 0.10 | 0.10 | 99 | 1008.6 |
| 20260506114608 | 51 | 176 | 0.0 | 0.0 | 0.00 | 0.10 | 0.10 | 99 | 1008.1 |
| 20260506114106 | 51 | 187 | 0.0 | 0.0 | 0.07 | 0.10 | 0.10 | 99 | 1008.2 |
| 20260506113604 | 51 | 192 | 0.0 | 1.0 | 0.07 | 0.10 | 0.10 | 99 | 1008.2 |
| 20260506113101 | 51 | 186 | 0.0 | 0.0 | 0.00 | 0.09 | 0.09 | 99 | 1008.1 |
| 20260506112557 | 51 | 187 | 0.0 | 0.0 | 0.00 | 0.09 | 0.09 | 99 | 1008.2 |
| 20260506112055 | 51 | 186 | 0.0 | 0.0 | 0.00 | 0.09 | 0.09 | 99 | 1008.2 |
| 20260506111553 | 51 | 185 | 0.0 | 0.0 | 0.00 | 0.09 | 0.09 | 99 | 1007.9 |
| 20260506111050 | 51 | 193 | 0.0 | 0.0 | 0.00 | 0.09 | 0.09 | 99 | 1008.0 |
| 20260506110548 | 51 | 189 | 0.0 | 0.0 | 0.00 | 0.09 | 0.09 | 99 | 1007.9 |
| 20260506110045 | 51 | 181 | 0.0 | 0.0 | 0.00 | 0.09 | 0.09 | 99 | 1007.9 |
| 20260506105541 | 51 | 130 | 1.0 | 2.0 | 0.05 | 0.09 | 0.09 | 99 | 1008.0 |
| 20260506105038 | 51 | 188 | 0.0 | 0.0 | 0.05 | 0.09 | 0.09 | 99 | 1008.0 |
| 20260506104536 | 51 | 180 | 0.0 | 0.0 | 0.00 | 0.08 | 0.08 | 99 | 1007.9 |
| 20260506104034 | 51 | 182 | 0.0 | 0.0 | 0.00 | 0.08 | 0.08 | 99 | 1007.9 |
| 20260506103531 | 51 | 209 | 1.0 | 1.0 | 0.00 | 0.08 | 0.08 | 99 | 1008.0 |
| 20260506103027 | 51 | 250 | 1.0 | 1.0 | 0.00 | 0.08 | 0.08 | 99 | 1007.9 |
| 20260506102526 | 52 | 179 | 0.0 | 1.0 | 0.00 | 0.08 | 0.08 | 99 | 1008.0 |
| 20260506102023 | 52 | 211 | 1.0 | 2.0 | 0.00 | 0.08 | 0.08 | 99 | 1007.8 |
| 20260506101519 | 51 | 204 | 1.0 | 1.0 | 0.00 | 0.08 | 0.08 | 99 | 1008.1 |
| 20260506101016 | 52 | 189 | 1.0 | 1.0 | 0.00 | 0.08 | 0.08 | 99 | 1008.2 |
| 20260506100515 | 52 | 175 | 0.0 | 1.0 | 0.00 | 0.08 | 0.08 | 99 | 1008.2 |
| 20260506100013 | 52 | 184 | 0.0 | 0.0 | 0.00 | 0.08 | 0.08 | 99 | 1007.9 |
| 20260506095511 | 52 | 192 | 0.0 | 0.0 | 0.00 | 0.08 | 0.08 | 99 | 1008.0 |
| 20260506095006 | 52 | 211 | 1.0 | 1.0 | 0.00 | 0.08 | 0.08 | 99 | 1007.8 |
| 20260506094505 | 52 | 232 | 0.0 | 1.0 | 0.00 | 0.08 | 0.08 | 99 | 1008.0 |
| 20260506094003 | 52 | 188 | 0.0 | 0.0 | 0.00 | 0.08 | 0.08 | 99 | 1008.0 |
| 20260506093501 | 52 | 183 | 0.0 | 0.0 | 0.00 | 0.08 | 0.08 | 99 | 1007.9 |
| 20260506092958 | 52 | 185 | 0.0 | 0.0 | 0.00 | 0.08 | 0.08 | 99 | 1008.2 |
| 20260506092456 | 52 | 185 | 0.0 | 0.0 | 0.00 | 0.08 | 0.08 | 99 | 1008.2 |
| 20260506091952 | 52 | 185 | 0.0 | 0.0 | 0.00 | 0.08 | 0.08 | 99 | 1008.3 |
| 20260506091450 | 52 | 186 | 0.0 | 0.0 | 0.00 | 0.08 | 0.08 | 99 | 1008.4 |
| 20260506090947 | 52 | 185 | 0.0 | 0.0 | 0.00 | 0.08 | 0.08 | 99 | 1008.2 |
| 20260506090445 | 52 | 194 | 0.0 | 0.0 | 0.00 | 0.08 | 0.08 | 99 | 1007.9 |
| 20260506085941 | 52 | 188 | 0.0 | 0.0 | 0.00 | 0.08 | 0.08 | 99 | 1007.8 |
| 20260506085438 | 52 | 187 | 0.0 | 0.0 | 0.00 | 0.08 | 0.08 | 99 | 1008.2 |
| 20260506084934 | 52 | 187 | 0.0 | 0.0 | 0.00 | 0.08 | 0.08 | 99 | 1008.1 |
| 20260506084432 | 52 | 185 | 0.0 | 0.0 | 0.00 | 0.08 | 0.08 | 99 | 1008.4 |
| 20260506083927 | 52 | 180 | 0.0 | 0.0 | 0.00 | 0.08 | 0.08 | 99 | 1008.2 |
| 20260506083425 | 52 | 180 | 0.0 | 0.0 | 0.00 | 0.08 | 0.08 | 99 | 1008.0 |
| 20260506082922 | 52 | 180 | 0.0 | 0.0 | 0.00 | 0.08 | 0.08 | 99 | 1008.3 |
| 20260506082419 | 52 | 180 | 0.0 | 0.0 | 0.00 | 0.08 | 0.08 | 99 | 1008.6 |
| 20260506081914 | 52 | 180 | 0.0 | 0.0 | 0.00 | 0.08 | 0.08 | 99 | 1008.5 |
| 20260506081414 | 52 | 198 | 0.0 | 0.0 | 0.00 | 0.08 | 0.08 | 99 | 1008.6 |
| 20260506080910 | 52 | 177 | 0.0 | 0.0 | 0.00 | 0.08 | 0.08 | 99 | 1008.7 |
| 20260506080407 | 52 | 166 | 2.0 | 2.0 | 0.00 | 0.08 | 0.08 | 99 | 1009.1 |
| 20260506073351 | 52 | 195 | 0.0 | 0.0 | 0.00 | 0.08 | 0.08 | 99 | 1007.9 |
| 20260506072847 | 53 | 195 | 0.0 | 0.0 | 0.00 | 0.08 | 0.08 | 99 | 1007.9 |
| 20260506072345 | 53 | 195 | 0.0 | 0.0 | 0.00 | 0.08 | 0.08 | 99 | 1008.0 |
| 20260506071843 | 53 | 195 | 0.0 | 0.0 | 0.00 | 0.08 | 0.08 | 99 | 1008.1 |
| 20260506071341 | 53 | 196 | 0.0 | 0.0 | 0.00 | 0.08 | 0.08 | 99 | 1008.1 |
| 20260506070837 | 53 | 196 | 0.0 | 0.0 | 0.00 | 0.08 | 0.08 | 99 | 1008.0 |
| 20260506070334 | 53 | 195 | 0.0 | 0.0 | 0.07 | 0.08 | 0.08 | 99 | 1007.9 |
| 20260506062312 | 53 | 182 | 0.0 | 0.0 | 0.00 | 0.05 | 0.05 | 99 | 1008.3 |
| 20260506061808 | 53 | 218 | 1.0 | 1.0 | 0.00 | 0.05 | 0.05 | 99 | 1008.2 |
| 20260506061304 | 53 | 180 | 0.0 | 0.0 | 0.00 | 0.05 | 0.05 | 99 | 1008.1 |
| 20260506060803 | 54 | 178 | 0.0 | 0.0 | 0.00 | 0.05 | 0.05 | 99 | 1008.3 |
| 20260506060301 | 54 | 181 | 0.0 | 0.0 | 0.00 | 0.05 | 0.05 | 99 | 1008.2 |
| 20260506051232 | 55 | 178 | 0.0 | 0.0 | 0.00 | 0.03 | 0.03 | 99 | 1008.9 |
| 20260506050730 | 55 | 178 | 0.0 | 0.0 | 0.00 | 0.03 | 0.03 | 99 | 1008.8 |
| 20260506050227 | 55 | 181 | 0.0 | 0.0 | 0.07 | 0.03 | 0.03 | 99 | 1008.5 |
| 20260506044718 | 55 | 182 | 0.0 | 0.0 | 0.05 | 0.02 | 0.02 | 99 | 1008.3 |
| 20260506044215 | 55 | 178 | 0.0 | 0.0 | 0.07 | 0.01 | 0.01 | 99 | 1008.4 |
| 20260506043712 | 55 | 178 | 0.0 | 0.0 | 0.00 | 0.00 | 0.00 | 99 | 1008.6 |
| 20260506043210 | 56 | 179 | 0.0 | 0.0 | 0.00 | 0.00 | 0.00 | 99 | 1008.3 |
| 20260506042709 | 56 | 176 | 0.0 | 0.0 | 0.00 | 0.00 | 0.00 | 99 | 1008.3 |
| 20260506042206 | 56 | 179 | 0.0 | 0.0 | 0.00 | 0.00 | 0.00 | 99 | 1008.6 |
| 20260506041705 | 55 | 180 | 0.0 | 0.0 | 0.00 | 0.00 | 0.00 | 99 | 1008.3 |
| 20260506041201 | 56 | 197 | 1.0 | 1.0 | 0.00 | 0.00 | 0.00 | 99 | 1008.1 |
| 20260506040659 | 56 | 179 | 0.0 | 0.0 | 0.12 | 0.00 | 0.00 | 99 | 1008.5 |
| 20260506040155 | 56 | 180 | 0.0 | 0.0 | 0.17 | 0.00 | 0.00 | 99 | 1008.6 |
| 20260506035652 | 56 | 12 | 2.0 | 2.0 | 0.12 | 0.12 | 0.12 | 99 | 1008.7 |
| 20260506035149 | 56 | 182 | 0.0 | 0.0 | 0.00 | 0.10 | 0.10 | 99 | 1008.3 |
| 20260506034646 | 56 | 222 | 1.0 | 1.0 | 0.00 | 0.10 | 0.10 | 99 | 1008.0 |
| 20260506034143 | 56 | 181 | 0.0 | 0.0 | 0.07 | 0.10 | 0.10 | 98 | 1007.9 |
| 20260506033640 | 56 | 180 | 0.0 | 0.0 | 0.07 | 0.10 | 0.10 | 98 | 1007.6 |
| 20260506033137 | 56 | 181 | 0.0 | 0.0 | 0.12 | 0.09 | 0.09 | 98 | 1007.0 |
| 20260506032634 | 56 | 180 | 0.0 | 0.0 | 0.17 | 0.09 | 0.09 | 97 | 1007.4 |
| 20260506032131 | 56 | 179 | 1.0 | 1.0 | 0.05 | 0.07 | 0.07 | 97 | 1007.5 |
| 20260506031628 | 56 | 176 | 0.0 | 0.0 | 0.07 | 0.06 | 0.06 | 96 | 1006.8 |
| 20260506031125 | 56 | 176 | 0.0 | 0.0 | 0.07 | 0.06 | 0.06 | 96 | 1006.9 |
| 20260506030624 | 57 | 176 | 0.0 | 0.0 | 0.00 | 0.05 | 0.05 | 96 | 1006.9 |
| 20260506030121 | 57 | 176 | 0.0 | 0.0 | 0.00 | 0.05 | 0.05 | 95 | 1007.0 |
| 20260506025617 | 57 | 176 | 0.0 | 0.0 | 0.00 | 0.05 | 0.05 | 94 | 1006.9 |
| 20260506025113 | 57 | 176 | 0.0 | 0.0 | 0.00 | 0.05 | 0.05 | 94 | 1007.0 |
| 20260506024611 | 57 | 176 | 0.0 | 0.0 | 0.00 | 0.05 | 0.05 | 93 | 1006.8 |
| 20260506024107 | 57 | 176 | 0.0 | 0.0 | 0.00 | 0.05 | 0.05 | 93 | 1006.9 |
| 20260506023603 | 58 | 176 | 0.0 | 0.0 | 0.00 | 0.05 | 0.05 | 91 | 1006.7 |
| 20260506023101 | 58 | 176 | 0.0 | 0.0 | 0.00 | 0.05 | 0.05 | 90 | 1006.8 |
| 20260506022558 | 58 | 176 | 0.0 | 0.0 | 0.00 | 0.05 | 0.05 | 90 | 1007.0 |
| 20260506022055 | 58 | 176 | 0.0 | 1.0 | 0.00 | 0.05 | 0.05 | 90 | 1007.1 |
| 20260506021553 | 58 | 176 | 0.0 | 1.0 | 0.00 | 0.05 | 0.05 | 90 | 1006.8 |
| 20260506021050 | 58 | 176 | 0.0 | 0.0 | 0.00 | 0.05 | 0.05 | 90 | 1006.9 |
| 20260506020547 | 58 | 177 | 0.0 | 0.0 | 0.00 | 0.05 | 0.05 | 90 | 1006.8 |
| 20260506020044 | 58 | 173 | 1.0 | 1.0 | 0.00 | 0.05 | 0.05 | 90 | 1007.0 |
| 20260506015542 | 58 | 180 | 0.0 | 0.0 | 0.00 | 0.05 | 0.05 | 89 | 1006.9 |
| 20260506015039 | 59 | 179 | 0.0 | 0.0 | 0.00 | 0.05 | 0.05 | 88 | 1006.7 |
| 20260506014536 | 59 | 176 | 1.0 | 1.0 | 0.00 | 0.05 | 0.05 | 88 | 1006.6 |
| 20260506014032 | 59 | 176 | 1.0 | 1.0 | 0.00 | 0.05 | 0.05 | 88 | 1006.2 |
| 20260506013531 | 58 | 177 | 0.0 | 0.0 | 0.00 | 0.05 | 0.05 | 89 | 1006.3 |
| 20260506013027 | 59 | 171 | 0.0 | 0.0 | 0.00 | 0.05 | 0.05 | 90 | 1006.2 |
| 20260506012523 | 59 | 171 | 0.0 | 0.0 | 0.00 | 0.05 | 0.05 | 90 | 1006.1 |
| 20260506012020 | 59 | 171 | 0.0 | 0.0 | 0.00 | 0.05 | 0.05 | 89 | 1006.1 |
| 20260506011517 | 59 | 171 | 0.0 | 0.0 | 0.00 | 0.05 | 0.05 | 89 | 1006.2 |
| 20260506011013 | 59 | 171 | 0.0 | 0.0 | 0.00 | 0.05 | 0.05 | 89 | 1006.2 |
| 20260506010508 | 59 | 171 | 0.0 | 0.0 | 0.00 | 0.05 | 0.05 | 88 | 1005.9 |
| 20260506010003 | 60 | 171 | 0.0 | 0.0 | 0.00 | 0.05 | 0.05 | 87 | 1006.0 |
| 20260506005501 | 60 | 171 | 0.0 | 0.0 | 0.00 | 0.05 | 0.05 | 87 | 1005.9 |
| 20260506004956 | 60 | 171 | 0.0 | 0.0 | 0.00 | 0.05 | 0.05 | 86 | 1005.9 |
| 20260506004454 | 60 | 171 | 0.0 | 0.0 | 0.00 | 0.05 | 0.05 | 86 | 1006.0 |
| 20260506003950 | 60 | 171 | 0.0 | 0.0 | 0.00 | 0.05 | 0.05 | 85 | 1005.9 |
| 20260506003447 | 61 | 171 | 0.0 | 0.0 | 0.00 | 0.05 | 0.05 | 85 | 1005.8 |
| 20260506002943 | 61 | 171 | 0.0 | 0.0 | 0.00 | 0.05 | 0.05 | 85 | 1005.8 |
| 20260506002439 | 61 | 171 | 0.0 | 0.0 | 0.00 | 0.05 | 0.05 | 83 | 1005.8 |
| 20260506001934 | 61 | 171 | 0.0 | 0.0 | 0.00 | 0.05 | 0.05 | 83 | 1005.8 |
| 20260506001432 | 61 | 171 | 0.0 | 0.0 | 0.00 | 0.05 | 0.05 | 82 | 1005.9 |
| 20260506000929 | 61 | 179 | 1.0 | 2.0 | 0.00 | 0.05 | 0.05 | 83 | 1005.9 |
| 20260506000426 | 61 | 177 | 0.0 | 0.0 | 0.00 | 0.05 | 0.05 | 83 | 1005.8 |
| 20260505235923 | 62 | 174 | 0.0 | 0.0 | 0.00 | 0.05 | 0.05 | 84 | 1005.7 |
| 20260505235421 | 62 | 174 | 0.0 | 0.0 | 0.00 | 0.05 | 0.05 | 82 | 1005.7 |
| 20260505234918 | 64 | 166 | 2.0 | 2.0 | 0.00 | 0.05 | 0.05 | 77 | 1005.8 |
| 20260505234416 | 64 | 178 | 0.0 | 0.0 | 0.00 | 0.05 | 0.05 | 74 | 1005.7 |
| 20260505233912 | 64 | 172 | 2.0 | 2.0 | 0.00 | 0.05 | 0.05 | 74 | 1005.9 |
| 20260505233410 | 64 | 167 | 2.0 | 2.0 | 0.00 | 0.05 | 0.05 | 74 | 1005.7 |
| 20260505232907 | 64 | 173 | 3.0 | 3.0 | 0.00 | 0.05 | 0.05 | 73 | 1005.6 |
| 20260505232405 | 65 | 171 | 1.0 | 1.0 | 0.00 | 0.05 | 0.05 | 71 | 1005.5 |
| 20260505231901 | 65 | 174 | 1.0 | 2.0 | 0.00 | 0.05 | 0.05 | 71 | 1005.3 |
| 20260505231359 | 65 | 166 | 1.0 | 2.0 | 0.00 | 0.05 | 0.05 | 70 | 1005.4 |
| 20260505230857 | 65 | 174 | 1.0 | 2.0 | 0.00 | 0.05 | 0.05 | 71 | 1005.2 |
| 20260505230354 | 64 | 158 | 2.0 | 2.0 | 0.00 | 0.05 | 0.05 | 73 | 1005.2 |
| 20260505225851 | 64 | 184 | 2.0 | 2.0 | 0.00 | 0.05 | 0.05 | 74 | 1005.2 |
| 20260505225348 | 65 | 176 | 1.0 | 1.0 | 0.00 | 0.05 | 0.05 | 75 | 1005.4 |
| 20260505224843 | 65 | 176 | 1.0 | 2.0 | 0.00 | 0.05 | 0.05 | 75 | 1005.5 |
| 20260505224341 | 65 | 179 | 0.0 | 0.0 | 0.00 | 0.05 | 0.05 | 75 | 1005.4 |
| 20260505223838 | 65 | 176 | 1.0 | 1.0 | 0.00 | 0.05 | 0.05 | 73 | 1005.3 |
| 20260505223335 | 65 | 175 | 0.0 | 0.0 | 0.00 | 0.05 | 0.05 | 73 | 1005.4 |
| 20260505222830 | 65 | 162 | 2.0 | 2.0 | 0.00 | 0.05 | 0.05 | 74 | 1004.9 |
| 20260505222327 | 65 | 175 | 0.0 | 1.0 | 0.00 | 0.05 | 0.05 | 76 | 1004.7 |
| 20260505221824 | 65 | 174 | 0.0 | 0.0 | 0.00 | 0.05 | 0.05 | 76 | 1004.8 |
| 20260505221321 | 65 | 184 | 1.0 | 1.0 | 0.00 | 0.05 | 0.05 | 72 | 1004.8 |
| 20260505220818 | 66 | 165 | 2.0 | 3.0 | 0.00 | 0.05 | 0.05 | 74 | 1005.2 |
| 20260505220315 | 67 | 206 | 2.0 | 3.0 | 0.00 | 0.05 | 0.05 | 70 | 1005.3 |
| 20260505215813 | 67 | 172 | 0.0 | 1.0 | 0.00 | 0.05 | 0.05 | 69 | 1005.2 |
| 20260505215310 | 67 | 179 | 1.0 | 1.0 | 0.00 | 0.05 | 0.05 | 69 | 1005.3 |
| 20260505214808 | 67 | 129 | 3.0 | 5.0 | 0.00 | 0.05 | 0.05 | 69 | 1005.0 |
| 20260505214305 | 67 | 175 | 3.0 | 3.0 | 0.00 | 0.05 | 0.05 | 70 | 1004.8 |
| 20260505213802 | 67 | 183 | 0.0 | 1.0 | 0.00 | 0.05 | 0.05 | 72 | 1004.3 |
| 20260505213300 | 67 | 175 | 0.0 | 0.0 | 0.00 | 0.05 | 0.05 | 72 | 1004.3 |
| 20260505212755 | 67 | 177 | 0.0 | 1.0 | 0.00 | 0.05 | 0.05 | 73 | 1004.2 |
| 20260505212253 | 67 | 182 | 0.0 | 1.0 | 0.00 | 0.05 | 0.05 | 74 | 1004.4 |
| 20260505211749 | 67 | 180 | 1.0 | 1.0 | 0.00 | 0.05 | 0.05 | 73 | 1004.1 |
| 20260505211247 | 66 | 177 | 1.0 | 1.0 | 0.00 | 0.05 | 0.05 | 73 | 1004.1 |
| 20260505210743 | 66 | 180 | 0.0 | 1.0 | 0.00 | 0.05 | 0.05 | 75 | 1004.2 |
| 20260505210240 | 66 | 179 | 1.0 | 1.0 | 0.00 | 0.05 | 0.05 | 77 | 1004.1 |
| 20260505205737 | 66 | 180 | 0.0 | 1.0 | 0.00 | 0.05 | 0.05 | 77 | 1004.2 |
| 20260505205236 | 65 | 209 | 1.0 | 1.0 | 0.00 | 0.05 | 0.05 | 78 | 1004.6 |
| 20260505204732 | 64 | 181 | 1.0 | 1.0 | 0.00 | 0.05 | 0.05 | 80 | 1004.1 |
| 20260505204230 | 64 | 170 | 0.0 | 1.0 | 0.00 | 0.05 | 0.05 | 82 | 1004.3 |
| 20260505203727 | 64 | 179 | 1.0 | 1.0 | 0.00 | 0.05 | 0.05 | 84 | 1004.1 |
| 20260505203224 | 63 | 179 | 1.0 | 1.0 | 0.00 | 0.05 | 0.05 | 86 | 1003.9 |
| 20260505202719 | 63 | 178 | 1.0 | 2.0 | 0.00 | 0.05 | 0.05 | 86 | 1003.8 |
| 20260505202216 | 63 | 180 | 1.0 | 1.0 | 0.00 | 0.05 | 0.05 | 86 | 1003.9 |
| 20260505201712 | 63 | 180 | 1.0 | 2.0 | 0.00 | 0.05 | 0.05 | 85 | 1003.8 |
| 20260505201210 | 62 | 162 | 2.0 | 2.0 | 0.00 | 0.05 | 0.05 | 85 | 1003.7 |
| 20260505200708 | 63 | 175 | 1.0 | 2.0 | 0.00 | 0.05 | 0.05 | 87 | 1003.7 |
| 20260505200205 | 62 | 174 | 1.0 | 1.0 | 0.24 | 0.05 | 0.05 | 86 | 1003.6 |
| 20260505195700 | 64 | 146 | 1.0 | 1.0 | 0.31 | 0.05 | 0.05 | 83 | 1003.5 |
| 20260505195158 | 68 | 160 | 4.0 | 6.0 | 0.07 | 0.01 | 0.01 | 73 | 1004.2 |
| 20260505194655 | 72 | 159 | 7.0 | 9.0 | 0.00 | 0.00 | 0.00 | 59 | 1004.1 |
| 20260505194151 | 74 | 156 | 5.0 | 6.0 | 0.00 | 0.00 | 0.00 | 47 | 1002.5 |
| 20260505193648 | 74 | 115 | 2.0 | 2.0 | 0.00 | 0.00 | 0.00 | 46 | 1001.7 |
| 20260505193145 | 74 | 161 | 3.0 | 5.0 | 0.00 | 0.00 | 0.00 | 47 | 1001.3 |
| 20260505192644 | 73 | 175 | 1.0 | 3.0 | 0.00 | 0.00 | 0.00 | 48 | 1001.5 |
| 20260505192141 | 74 | 161 | 6.0 | 7.0 | 0.00 | 0.00 | 0.00 | 48 | 1002.0 |
| 20260505191639 | 74 | 168 | 2.0 | 2.0 | 0.00 | 0.00 | 0.00 | 48 | 1001.4 |
| 20260505191137 | 76 | 171 | 7.0 | 10.0 | 0.00 | 0.00 | 0.00 | 45 | 1001.5 |
| 20260505190633 | 78 | 166 | 4.0 | 5.0 | 0.00 | 0.00 | 0.00 | 40 | 1001.1 |
| 20260505190127 | 79 | 190 | 3.0 | 6.0 | 0.00 | 0.00 | 0.00 | 39 | 1000.8 |
| 20260505185624 | 79 | 180 | 3.0 | 5.0 | 0.00 | 0.00 | 0.00 | 38 | 1001.1 |
| 20260505185120 | 78 | 180 | 6.0 | 9.0 | 0.00 | 0.00 | 0.00 | 38 | 1000.9 |
| 20260505184617 | 78 | 171 | 6.0 | 9.0 | 0.00 | 0.00 | 0.00 | 37 | 1001.1 |
| 20260505184114 | 78 | 199 | 7.0 | 8.0 | 0.00 | 0.00 | 0.00 | 38 | 1001.2 |
| 20260505183611 | 79 | 180 | 5.0 | 7.0 | 0.00 | 0.00 | 0.00 | 38 | 1001.1 |
| 20260505183109 | 79 | 168 | 5.0 | 9.0 | 0.00 | 0.00 | 0.00 | 38 | 1000.8 |
| 20260505182604 | 79 | 174 | 5.0 | 8.0 | 0.00 | 0.00 | 0.00 | 38 | 1001.3 |
| 20260505182101 | 79 | 161 | 8.0 | 10.0 | 0.00 | 0.00 | 0.00 | 37 | 1001.1 |
| 20260505181558 | 79 | 192 | 2.0 | 2.0 | 0.00 | 0.00 | 0.00 | 38 | 1000.8 |
| 20260505181055 | 80 | 150 | 6.0 | 9.0 | 0.00 | 0.00 | 0.00 | 37 | 1001.3 |
| 20260505180551 | 80 | 191 | 5.0 | 8.0 | 0.00 | 0.00 | 0.00 | 37 | 1001.5 |
| 20260505180049 | 80 | 181 | 4.0 | 6.0 | 0.00 | 0.00 | 0.00 | 37 | 1001.6 |
| 20260505175544 | 80 | 186 | 2.0 | 2.0 | 0.00 | 0.00 | 0.00 | 38 | 1001.5 |
| 20260505175041 | 79 | 179 | 11.0 | 16.0 | 0.00 | 0.00 | 0.00 | 37 | 1001.5 |
| 20260505174538 | 79 | 162 | 4.0 | 6.0 | 0.00 | 0.00 | 0.00 | 39 | 1001.7 |
| 20260505174034 | 79 | 166 | 6.0 | 7.0 | 0.00 | 0.00 | 0.00 | 38 | 1001.7 |
| 20260505173531 | 79 | 165 | 3.0 | 3.0 | 0.00 | 0.00 | 0.00 | 38 | 1001.8 |
| 20260505173027 | 80 | 98 | 8.0 | 13.0 | 0.00 | 0.00 | 0.00 | 38 | 1001.7 |